Location: ?p Thanh B�nh
(16.5833°N, 107.5333°E)
Time: 05:42:56
(UTC+00:00)

OAO 3 Rocket - Pass Details

Date: 29 October 2020
Orbit: 629 x 682 km, 35.0° (Epoch: 29 November)

Event Time Altitude Azimuth Distance (km) Brightness Sun altitude
Rises 12:04:15 0° 309° (NW) 2,958 7.2 -25.2°
Reaches altitude 10° 12:06:42 10° 315° (NW) 2,038 6.1 -25.8°
Enters shadow 12:09:41 34° 339° (NNW) 1,062 4.3 -26.5°
